Flugwetter Haslital by BIRDWING.ch
alle Angaben ohne Gewähr
code & design by arbyte.ch


Planplatten 2245m
22.04.19  06:3027|49  SO3.3°C43%
22.04.19  06:1527|50  SO3.2°C39%
22.04.19  06:0029|59  SSO3.4°C32%
22.04.19  05:3027|53  SSO3.2°C30%
22.04.19  05:0026|55  SO3.0°C32%
➜ Windstation Planplatten

Meiringen 589m
22.04.19  06:2036|70  OSO18.0°C18%
22.04.19  06:1036|61  OSO18.0°C17%
22.04.19  06:0034|67  OSO18.0°C17%
22.04.19  05:4037|65  OSO17.9°C18%
22.04.19  05:2041|63  OSO18.1°C17%

Brienz 567m
22.04.19  06:200|2  WSW
22.04.19  06:105|8  W
22.04.19  06:004|5  W
22.04.19  05:404|7  W
22.04.19  05:202|11  SSO

Gütsch ob Andermatt 2283m
22.04.19  06:200|0  N
22.04.19  06:100|0  N
22.04.19  06:0040|55  SSO0.2°C62%
22.04.19  05:4041|52  S0.6°C61%
22.04.19  05:200|0  N

Höhematte Metropole 566m
22.04.19  06:2811|13  W11.6°C42%
22.04.19  06:2412|15  WSW11.4°C43%
22.04.19  06:1814|15  WSW11.3°C44%
22.04.19  06:0811|12  WSW11.6°C42%
22.04.19  05:584|16  SW12.0°C39%

Niederhorn 1950m
22.04.19  06:281|7  NNO7.5°C33%
22.04.19  06:244|7  NNO7.5°C33%
22.04.19  06:185|7  NNO7.5°C33%
22.04.19  06:084|5  NNO7.4°C34%
22.04.19  05:585|9  NNO7.4°C34%

. . . . . . . . .

Bänzlauistock 2528m
22.04.19  05:3064|84  SO
22.04.19  05:0071|90  SO
22.04.19  04:3076|95  SO

Sidelhorn 2733m
22.04.19  05:3031|39  SSO
22.04.19  05:0036|50  SSO
22.04.19  04:3039|50  SSO

Brienzer Rothorn 2348m
22.04.19  05:3026|51  SO
22.04.19  05:0029|51  SO
22.04.19  04:3024|54  SO

Altdorf 438m
22.04.19  06:2045|69  SO17.7°C23%
22.04.19  06:1041|63  SO17.8°C23%
22.04.19  06:0043|73  SO17.5°C25%
22.04.19  05:4043|62  SO17.8°C25%
22.04.19  05:2049|77  SO18.2°C25%

Chasseral 1599m
22.04.19  06:2011|13  SSO9.7°C24%
22.04.19  06:109|10  SSO10.2°C22%
22.04.19  06:0010|11  SO9.8°C26%
22.04.19  05:4013|16  SSO9.1°C34%
22.04.19  05:2014|18  SSO9.1°C33%

Eggishorn 2893m
22.04.19  06:2019|23  ONO-3.9°C57%
22.04.19  06:1017|23  ONO-3.7°C53%
22.04.19  06:0018|30  NO-3.7°C53%
22.04.19  05:4010|19  ONO-3.6°C52%
22.04.19  05:2021|28  OSO-3.3°C48%

Giswil 471m
22.04.19  06:203|7  W4.0°C83%
22.04.19  06:104|8  W3.9°C85%
22.04.19  06:002|7  SW3.3°C85%
22.04.19  05:404|8  W4.1°C84%
22.04.19  05:203|6  W3.5°C86%

Glarus 517m
22.04.19  06:204|8  W10.0°C48%
22.04.19  06:103|7  W11.2°C42%
22.04.19  06:004|11  SSW9.1°C53%
22.04.19  05:405|11  WSW9.7°C50%
22.04.19  05:206|13  WNW8.0°C59%

Gornergrat 3129m
22.04.19  06:2011|17  NNO-3.2°C58%
22.04.19  06:1012|22  N-3.4°C56%
22.04.19  06:0014|22  N-3.6°C56%
22.04.19  05:4012|22  NNW-3.7°C79%
22.04.19  05:2014|24  N-3.5°C63%

Grimsel Hospiz 1980m
22.04.19  06:2030|41  SSO3.8°C43%
22.04.19  06:1022|32  SSO4.0°C43%
22.04.19  06:0024|34  SSO3.6°C48%
22.04.19  05:4025|35  SSO3.8°C48%
22.04.19  05:2023|33  SSO3.1°C55%

Jungfraujoch 3580m
22.04.19  06:2040|46  SSO-8.0°C62%
22.04.19  06:1040|44  SSO-8.2°C53%
22.04.19  06:0037|44  SSO-8.4°C52%
22.04.19  05:4041|46  SSO-8.5°C49%
22.04.19  05:2046|50  SSO-8.8°C47%

Luzern 454m
22.04.19  06:201|3  NO7.7°C66%
22.04.19  06:103|4  NO8.0°C64%
22.04.19  06:002|3  NNO7.9°C67%
22.04.19  05:401|4  NW8.5°C61%
22.04.19  05:201|2  ONO8.0°C64%

Le Moléson 1974m
22.04.19  06:2013|17  O6.7°C30%
22.04.19  06:1011|13  OSO6.8°C28%
22.04.19  06:0013|17  OSO6.7°C30%
22.04.19  05:4016|19  OSO6.8°C29%
22.04.19  05:2017|20  SO6.8°C29%

Napf 1404m
22.04.19  06:2010|14  SSO11.0°C22%
22.04.19  06:109|14  SSO10.8°C23%
22.04.19  06:0012|16  SSO11.0°C22%
22.04.19  05:4013|19  SSO10.8°C23%
22.04.19  05:2013|18  SO10.7°C24%

Säntis 2502m
22.04.19  06:2013|17  SW2.6°C37%
22.04.19  06:1014|21  SW3.5°C35%
22.04.19  06:0017|22  SSW3.7°C35%
22.04.19  05:4021|26  S2.7°C36%
22.04.19  05:2023|30  S2.0°C39%

Thun 570m
22.04.19  06:203|5  SSW4.6°C82%
22.04.19  06:103|5  SSW4.8°C83%
22.04.19  06:003|6  SSW4.1°C85%
22.04.19  05:402|3  WSW4.6°C83%
22.04.19  05:203|4  SW4.7°C82%

Titlis 3040m
22.04.19  06:2027|37  SO-3.3°C52%
22.04.19  06:1025|38  SO-3.2°C45%
22.04.19  06:0034|53  SSO-2.9°C35%
22.04.19  05:4035|46  SO-3.2°C35%
22.04.19  05:2029|42  SO-3.3°C38%


QNH Druckwerte vom 22.04.2019 06:20
Interlaken1010.3 hPa
Zürich (SMA)1010.6 hPa
Acquarossa / Comprovasco1016.7 hPa
Locarno/Monti1016.1 hPa
Genève-Cointrin1009.8 hPa

Δ Comprovasco - Interlaken in hPa
22.04.19  06:201016.7 - 1010.3 =6.4
22.04.19  06:101017.0 - 1010.4 =6.6
22.04.19  05:501017.4 - 1010.8 =6.6
22.04.19  05:201017.8 - 1011.2 =6.6
22.04.19  04:201018.4 - 1011.7 =6.7

Δ Locarno - Zürich in hPa
22.04.19  06:201016.1 - 1010.6 =5.5
22.04.19  06:101016.2 - 1010.8 =5.4
22.04.19  05:501016.4 - 1010.9 =5.5
22.04.19  05:201017.0 - 1011.2 =5.8
22.04.19  04:201017.9 - 1011.8 =6.1

Δ Genf - Bodensee in hPa
22.04.19  06:201009.8 - 1010.8 =-1.0
22.04.19  06:101009.7 - 1010.8 =-1.1
22.04.19  05:501009.9 - 1010.9 =-1.0
22.04.19  05:201010.3 - 1011.1 =-0.8
22.04.19  04:201011.5 - 1011.6 =-0.1

Temp Meiringen - Plami in °C/100m
22.04.19  06:2018.0 - 3.3 = 14.70.89
22.04.19  05:5018.2 - 3.2 = 15.00.91
22.04.19  05:2018.1 - 3.0 = 15.10.91

Temp Lehn - Niederhorn in °C/100m
22.04.19  06:289.4 - 7.5 = 1.90.14
22.04.19  06:149.2 - 7.4 = 1.80.13
22.04.19  05:589.0 - 7.4 = 1.60.12

Temp Luzern - Pilatus in °C/100m
22.04.19  06:207.7 - 5.8 = 1.90.12
22.04.19  05:508.5 - 5.4 = 3.10.19
22.04.19  05:208.0 - 5.4 = 2.60.16